DLH9KX EDDF-EDDH

Flight info

Callsign DLH9KX
Flight time N/A
Altitude 35000
Route MARUN3W/25C MARUN Y150 TOLGI DCT SAS/N0443F340 P605 NOLGO NOLGO3D
Aircraft A321/M-SDE3FGHIRWY/LB1

Departure

Time 2026-04-15 16:40
Airport Frankfurt Main Airport (EDDF)

Arrival

Time N/A
Airport Hamburg Helmut Schmidt Airport (EDDH)
Time Latitude Longitude Altitude Speed Heading
2026-04-15 16:01 50.04042 8.55546 351 ft 0 kts 160°
2026-04-15 16:31 50.04037 8.55548 358 ft 2 kts 160°
2026-04-15 16:31 50.04023 8.55556 358 ft 3 kts 160°
2026-04-15 16:31 50.03991 8.55573 356 ft 7 kts 161°
2026-04-15 16:31 50.03972 8.55636 352 ft 8 kts 76°
2026-04-15 16:32 50.03982 8.55674 355 ft 2 kts 69°
2026-04-15 16:32 50.03991 8.55712 351 ft 6 kts 70°
2026-04-15 16:32 50.04010 8.55794 352 ft 10 kts 70°
2026-04-15 16:32 50.04039 8.55917 358 ft 14 kts 69°
2026-04-15 16:33 50.04076 8.56073 357 ft 17 kts 71°
2026-04-15 16:33 50.04120 8.56249 356 ft 18 kts 70°
2026-04-15 16:33 50.04165 8.56438 357 ft 18 kts 69°
2026-04-15 16:33 50.04209 8.56622 361 ft 18 kts 70°
2026-04-15 16:34 50.04252 8.56802 361 ft 17 kts 69°
2026-04-15 16:34 50.04294 8.56980 364 ft 18 kts 71°
2026-04-15 16:34 50.04338 8.57165 361 ft 19 kts 69°
2026-04-15 16:34 50.04349 8.57211 363 ft 1 kts 68°
2026-04-15 16:35 50.04358 8.57248 364 ft 6 kts 69°
2026-04-15 16:35 50.04380 8.57340 363 ft 12 kts 70°
2026-04-15 16:35 50.04417 8.57493 363 ft 17 kts 69°
2026-04-15 16:35 50.04457 8.57660 370 ft 17 kts 69°
2026-04-15 16:36 50.04499 8.57835 367 ft 18 kts 70°
2026-04-15 16:36 50.04542 8.58019 366 ft 18 kts 70°
2026-04-15 16:36 50.04587 8.58202 369 ft 17 kts 69°
2026-04-15 16:36 50.04624 8.58363 369 ft 14 kts 70°
2026-04-15 16:37 50.04640 8.58429 369 ft 0 kts 69°
2026-04-15 16:37 50.04641 8.58431 369 ft 1 kts 69°
2026-04-15 16:38 50.04650 8.58470 370 ft 7 kts 69°
2026-04-15 16:38 50.04652 8.58551 372 ft 0 kts 126°
2026-04-15 16:38 50.04643 8.58558 371 ft 6 kts 150°
2026-04-15 16:38 50.04585 8.58594 371 ft 11 kts 160°
2026-04-15 16:39 50.04509 8.58630 371 ft 11 kts 182°
2026-04-15 16:39 50.04480 8.58558 370 ft 1 kts 250°
2026-04-15 16:39 50.04452 8.58434 370 ft 39 kts 251°
2026-04-15 16:39 50.04270 8.57660 365 ft 113 kts 248°
2026-04-15 16:40 50.03920 8.56208 500 ft 159 kts 249°
2026-04-15 16:40 50.03522 8.54634 1333 ft 156 kts 246°
2026-04-15 16:40 50.03113 8.53093 2139 ft 156 kts 246°
2026-04-15 16:40 50.02697 8.51436 2600 ft 174 kts 248°
2026-04-15 16:41 50.02113 8.49699 2950 ft 194 kts 230°
2026-04-15 16:41 50.01015 8.48399 3451 ft 203 kts 203°
2026-04-15 16:41 49.99640 8.47886 4128 ft 205 kts 188°
2026-04-15 16:41 49.98224 8.47576 4819 ft 207 kts 188°
2026-04-15 16:42 49.96790 8.47262 5502 ft 208 kts 188°
2026-04-15 16:42 49.95368 8.46758 6080 ft 215 kts 197°
2026-04-15 16:42 49.93850 8.46056 6390 ft 239 kts 197°
2026-04-15 16:42 49.92273 8.45127 7075 ft 246 kts 213°
2026-04-15 16:43 49.91087 8.43223 7850 ft 250 kts 241°
2026-04-15 16:43 49.90621 8.40635 8655 ft 254 kts 269°
2026-04-15 16:43 49.91025 8.37975 9464 ft 259 kts 298°
2026-04-15 16:43 49.92249 8.35920 10244 ft 266 kts 327°
2026-04-15 16:44 49.93954 8.34686 10779 ft 280 kts 335°
2026-04-15 16:44 49.95830 8.33471 11031 ft 303 kts 335°
2026-04-15 16:44 49.97853 8.32177 11245 ft 326 kts 335°
2026-04-15 16:44 50.00022 8.30785 11444 ft 346 kts 335°
2026-04-15 16:45 50.02322 8.29505 11969 ft 356 kts 344°
2026-04-15 16:45 50.04790 8.28958 12637 ft 363 kts 356°
2026-04-15 16:45 50.07328 8.29251 13305 ft 369 kts
2026-04-15 16:45 50.09813 8.30365 13969 ft 374 kts 17°
2026-04-15 16:46 50.12291 8.31672 14582 ft 378 kts 17°
2026-04-15 16:46 50.14790 8.32986 15179 ft 381 kts 17°
2026-04-15 16:46 50.17287 8.34299 15764 ft 385 kts 17°
2026-04-15 16:46 50.19837 8.35638 16365 ft 388 kts 17°
2026-04-15 16:47 50.22409 8.36986 16972 ft 392 kts 16°
2026-04-15 16:47 50.25005 8.38349 17573 ft 395 kts 16°
2026-04-15 16:47 50.27620 8.39722 18158 ft 399 kts 16°
2026-04-15 16:47 50.30260 8.41116 18691 ft 402 kts 17°
2026-04-15 16:48 50.32924 8.42552 19178 ft 405 kts 17°
2026-04-15 16:48 50.35590 8.44007 19686 ft 407 kts 17°
2026-04-15 16:48 50.38268 8.45474 20199 ft 409 kts 17°
2026-04-15 16:48 50.40964 8.46955 20708 ft 412 kts 17°
2026-04-15 16:49 50.43673 8.48444 21190 ft 414 kts 17°
2026-04-15 16:49 50.46396 8.49941 21677 ft 416 kts 17°
2026-04-15 16:49 50.49146 8.51414 22161 ft 418 kts 15°
2026-04-15 16:49 50.51911 8.52879 22627 ft 422 kts 20°
2026-04-15 16:50 50.54440 8.55270 23071 ft 430 kts 37°
2026-04-15 16:50 50.56740 8.58304 23542 ft 433 kts 38°
2026-04-15 16:50 50.59040 8.61386 23974 ft 435 kts 38°
2026-04-15 16:50 50.61344 8.64487 24365 ft 437 kts 38°
2026-04-15 16:51 50.63664 8.67609 24754 ft 439 kts 38°
2026-04-15 16:51 50.65990 8.70737 25133 ft 441 kts 38°
2026-04-15 16:51 50.68336 8.73871 25521 ft 443 kts 37°
2026-04-15 16:51 50.70724 8.76963 25903 ft 445 kts 36°
2026-04-15 16:52 50.73140 8.80012 26274 ft 447 kts 36°
2026-04-15 16:52 50.75586 8.83056 26657 ft 448 kts 35°
2026-04-15 16:52 50.78048 8.86113 27021 ft 451 kts 36°
2026-04-15 16:52 50.80515 8.89194 27385 ft 453 kts 36°
2026-04-15 16:53 50.82986 8.92302 27746 ft 455 kts 36°
2026-04-15 16:53 50.85431 8.95406 28105 ft 457 kts 36°
2026-04-15 16:53 50.87907 8.98569 28460 ft 459 kts 36°
2026-04-15 16:53 50.90399 9.01761 28785 ft 461 kts 36°
2026-04-15 16:54 50.92904 9.04962 29099 ft 463 kts 36°
2026-04-15 16:54 50.95420 9.08159 29401 ft 465 kts 36°
2026-04-15 16:54 50.97952 9.11366 29704 ft 467 kts 36°
2026-04-15 16:54 51.00498 9.14588 29979 ft 469 kts 36°
2026-04-15 16:55 51.03046 9.17823 30256 ft 470 kts 36°
2026-04-15 16:55 51.05593 9.21066 30581 ft 469 kts 36°
2026-04-15 16:55 51.08156 9.24264 30895 ft 466 kts 32°
2026-04-15 16:55 51.10910 9.26934 31202 ft 462 kts 23°
2026-04-15 16:56 51.13859 9.28908 31505 ft 457 kts 15°
2026-04-15 16:56 51.16924 9.30169 31814 ft 454 kts
2026-04-15 16:56 51.20009 9.31217 32131 ft 453 kts
2026-04-15 16:56 51.23092 9.32277 32480 ft 452 kts
2026-04-15 16:57 51.26164 9.33344 32814 ft 451 kts
2026-04-15 16:57 51.29230 9.34411 33141 ft 450 kts
2026-04-15 16:57 51.32291 9.35481 33457 ft 450 kts
2026-04-15 16:57 51.35343 9.36551 33839 ft 447 kts
2026-04-15 16:58 51.38377 9.37613 34122 ft 447 kts
2026-04-15 16:58 51.41417 9.38673 34380 ft 447 kts
2026-04-15 16:58 51.44451 9.39732 34689 ft 443 kts
2026-04-15 16:58 51.47460 9.40783 34949 ft 443 kts
2026-04-15 16:59 51.50477 9.41835 35114 ft 445 kts
2026-04-15 16:59 51.51268 9.42112 35138 ft 445 kts